Location: Unspecified
(0.0000°N, 0.0000°E)
Time: 11:26:10
(UTC+00:00)

A-11 Canister half - Pass Details

Date: 03 August 2021
Orbit: 1526 x 1683 km, 47.3° (Epoch: 27 September)

Event Time Altitude Azimuth Distance (km) Brightness Sun altitude
Rises 05:03:20 0° 183° (S) 4,802 11.4 -15.0°
Reaches altitude 10° 05:10:09 10° 150° (SSE) 3,860 11.2 -13.4°
Maximum altitude 05:12:36 11° 135° (SE) 3,789 11.4 -12.8°
Drops below altitude 10° 05:15:03 10° 121° (ESE) 3,887 11.7 -12.2°
Sets 05:21:56 0° 88° (E) 4,906 13.3 -10.6°
